Enterprise, AL

9:20 PM CST on December 09, 2016 (GMT -0600)
Fort Rucker / Ozark

Weather History for KLOR - October, 2011

Change the Weather History Date:

Sunday, October 16, 2011

  Actual Average (KOZR) Record (KOZR)
Temperature  
Mean Temperature 69 °F -  
Max Temperature 90 °F 75 °F 90 °F (2015)
Min Temperature 48 °F 53 °F 44 °F (2000)
Cooling Degree Days 4    
Growing Degree Days 19 (Base 50)    
Moisture  
Dew Point 50 °F    
Average Humidity 62    
Maximum Humidity 96    
Minimum Humidity 22    
Precipitation  
Precipitation 0.00 in - - ()
Sea Level Pressure  
Sea Level Pressure 30.07 in    
Wind  
Wind Speed 1 mph (WSW)    
Max Wind Speed 6 mph    
Max Gust Speed -    
Visibility 10 miles    
Events      
Averages and records for this station are not official NWS values.
T = Trace of Precipitation, MM = Missing Value Source: NWS Daily Summary

Daily Weather History Graph

Daily Weather History Graph

Search for Another Location

Airport or City:

Trip Planner

Search our weather history database for the weather conditions in past years. The results will help you decide how hot, cold, wet, or windy it might be!

Date:

Astronomy

Oct. 16, 2011 Rise Set
Actual Time 6:46 AM CDT 6:10 PM CDT
Civil Twilight 6:21 AM CDT 6:34 PM CDT
Nautical Twilight 5:53 AM CDT 7:02 PM CDT
Astronomical Twilight 5:25 AM CDT 7:31 PM CDT
Moon 9:11 PM CDT (10/16) 10:47 AM CDT (10/16)
Length of Visible Light 12h 12m
Length of Day
11h 23m
Waning Gibbous, 82% of the Moon is Illuminated
Oct 16
Waning Gibbous
Oct 19
Last Quarter
Oct 26
New
Nov 2
First Quarter
Nov 10
Full

Hourly Weather History & Observations

Time (CDT) Temp. Dew Point Humidity Pressure Visibility Wind Dir Wind Speed Gust Speed Precip Events Conditions
12:53 AM 54.0 °F 52.0 °F 93% 30.11 in 10.0 mi Calm Calm - N/A   Clear
1:53 AM 53.1 °F 51.1 °F 93% 30.10 in 10.0 mi Calm Calm - N/A   Clear
2:53 AM 53.1 °F 50.0 °F 89% 30.10 in 10.0 mi Calm Calm - N/A   Clear
3:53 AM 50.0 °F 48.9 °F 96% 30.10 in 10.0 mi Calm Calm - N/A   Clear
4:53 AM 50.0 °F 48.0 °F 93% 30.10 in 10.0 mi Calm Calm - N/A   Clear
5:53 AM - - N/A% - 10.0 mi Calm Calm - N/A   Unknown
6:53 AM 48.0 °F 46.9 °F 96% 30.13 in 9.0 mi Calm Calm - N/A   Clear
7:53 AM 54.0 °F 52.0 °F 93% 30.13 in 10.0 mi Calm Calm - N/A   Clear
8:53 AM 66.9 °F 55.0 °F 66% 30.15 in 10.0 mi Calm Calm - N/A   Clear
9:53 AM 75.9 °F 52.0 °F 43% 30.15 in 10.0 mi Variable 3.5 mph - N/A   Clear
10:53 AM 81.0 °F 51.1 °F 35% 30.14 in 10.0 mi Variable 3.5 mph - N/A   Clear
11:53 AM 84.0 °F 48.9 °F 29% 30.12 in 10.0 mi Calm Calm - N/A   Clear
12:53 PM 87.1 °F 46.9 °F 25% 30.08 in 10.0 mi WSW 3.5 mph - N/A   Clear
1:53 PM 89.1 °F 45.0 °F 22% 30.04 in 10.0 mi Variable 4.6 mph - N/A   Clear
2:53 PM 89.1 °F 46.0 °F 22% 30.03 in 10.0 mi Calm Calm - N/A   Clear
3:53 PM 90.0 °F 46.0 °F 22% 30.02 in 10.0 mi Variable 5.8 mph - N/A   Clear
4:53 PM 87.1 °F 46.0 °F 24% 30.01 in 10.0 mi Calm Calm - N/A   Clear
5:53 PM 82.0 °F 50.0 °F 33% 30.00 in 10.0 mi Calm Calm - N/A   Clear
6:53 PM 71.1 °F 52.0 °F 51% 30.01 in 10.0 mi Calm Calm - N/A   Clear
7:53 PM 66.0 °F 53.1 °F 63% 30.03 in 10.0 mi Calm Calm - N/A   Clear
8:53 PM 63.0 °F 55.0 °F 75% 30.04 in 10.0 mi Calm Calm - N/A   Clear
9:53 PM 60.1 °F 54.0 °F 80% 30.04 in 10.0 mi Calm Calm - N/A   Clear
10:53 PM 57.0 °F 53.1 °F 87% 30.04 in 10.0 mi Calm Calm - N/A   Clear
11:53 PM 55.9 °F 53.1 °F 90% 30.03 in 10.0 mi Calm Calm - N/A   Clear